weather.gov     
National Weather Service

Regional Weather Roundup
NWS Homepage
This page is being discontinued on March 12, 2014.
The same data is available at this site. Please update your bookmarks.
Thank you, and we apologize for the inconvenience.
Please send an email to SR-SRH.Webmaster@noaa.gov with any concerns.


Current Version
Previous Version:    01  02  03  04  05  06  07  08  09  10  11  12  13  14  15  16  17  18  19  20  21  22  23  24  25  26  27  28  29  30  
   31  32  33  34  35  36  37  38  39  40  41  42  43  44  45  46  47  48  49  50  51  52  53  54  
[Printable]
041
ASUS43 KFGF 220310
RWRFGF
PRAIRIE TO PINES  WEATHER ROUNDUP
NATIONAL WEATHER SERVICE EASTERN NORTH DAKOTA/GRAND FORKS ND
900 PM CST FRI NOV 21 2014

 **SATELLITE DATA USED TO AUGMENT SKY COVER AT AUTOMATED STATIONS**
 *****  WEATHER ACROSS EASTERN NORTH DAKOTA  *****

CITY           SKY/WX    TMP DP  RH WIND       PRES   REMARKS
GRAND FORKS    PTCLDY    31  25  78 SW9       29.60S WCI  23
GRAND FRKS AFB FAIR      35  29  77 W15       29.59F
GRAND FRKS NWS   N/A     28 N/A N/A S9          N/A  WCI  20
DEVILS LAKE    PTCLDY    37  25  60 W14       29.58S
FARGO          CLEAR     29  24  82 S10       29.70F WCI  20
WAHPETON ARPT  CLEAR     30  27  86 S7        29.74F WCI  23
$$

 ***** WEATHER ACROSS CENTRAL AND WESTERN NORTH DAKOTA  *****

CITY           SKY/WX    TMP DP  RH WIND       PRES   REMARKS
BISMARCK       PTCLDY    37  29  72 W6        29.71S
MINOT          CLEAR     37  28  70 SW13      29.61S
JAMESTOWN      CLEAR     38  28  67 W15       29.66S
MINOT AFB      CLEAR     35  30  81 W10       29.60S
GARRISON         N/A     31  28  89 W7        29.66S WCI  24
WILLISTON      CLEAR     33  29  85 SW12      29.64F WCI  24
DICKINSON      PTCLDY    36  27  69 W13       29.69F
HETTINGER      MOCLDY    34  27  75 W5        29.76S
$$

 *****  OTHER AIRPORT OBSERVATIONS IN OUR AREA  *****

CITY           SKY/WX    TMP DP  RH WIND       PRES   REMARKS
WALHALLA         N/A     41  32  70 W15G21    29.53R
GRAFTON AIRPOR FAIR      37  28  70 W14       29.56S
VALLEY CITY AR FAIR      27  27 100 S9        29.67S WCI  17
CANDO          FAIR      32  28  86 W10       29.58S WCI  24
CAVALIER APRT  FAIR      41  32  70 W15G21    29.54R
GWINNER        CLEAR     32  28  86 SW15      29.73S WCI  22
ROLLA          FAIR      32  32 100 SW10      29.58R WCI  24
 ***** THE ABOVE OBSERVATIONS ARE NON NWS ARE NOT QUALITY
       CONTROLLED AND MAY MIS-REPORT RAIN FOR SNOW...
$$

  *****  WEATHER ACROSS NORTHERN MINNESOTA  *****

CITY           SKY/WX    TMP DP  RH WIND       PRES   REMARKS
FLAG ISLAND    CLEAR     27  23  86 S15G22    29.52S WCI  15
WARROAD        CLEAR     28  25  86 SW16G23   29.54F WCI  17
ROSEAU         CLEAR     30  25  80 SW21      29.54S WCI  17
HALLOCK        CLEAR     27  23  86 S9        29.55S WCI  17
THF RVR FALLS  CLEAR     28  25  86 S22       29.60F WCI  15
BAUDETTE       CLEAR     28  21  75 S15       29.56F WCI  16
WASKISH        FAIR      28  23  80 S6        29.62F WCI  22
CROOKSTON      CLEAR     28  25  86 SW18      29.64F WCI  16
STEPHEN NDAWN    N/A     28  25  86 S12         N/A  WCI  18
GREENBUSH NDAW   N/A     28  25  86 S16         N/A  WCI  17
$$
  *****  WEATHER ACROSS CENTRAL AND WEST MINNESOTA  *****

CITY           SKY/WX    TMP DP  RH WIND       PRES   REMARKS
FOSSTON        PTCLDY    27  23  86 S18       29.65F WCI  13
BEMIDJI        MOCLDY    28  24  82 SW10      29.66S WCI  19
PARK RAPIDS    PTCLDY    27  23  85 S7        29.71F WCI  19
ELBOW LAKE       N/A     30  27  88 S10       29.76F WCI  21
WADENA         FAIR      28  25  86 S12       29.73F WCI  18
DETROIT LAKES  PTCLDY    32  28  86 SW12G17   29.71S WCI  23
MOORHEAD       CLEAR     30  28  93 S13       29.72S WCI  20
FERGUS FALLS   PTCLDY    28  25  86 S13       29.77F WCI  18
MORRIS MN      PTCLDY    28  25  86 S12       29.77F WCI  18
STAPLES        MOCLDY    28  25  86 S14G21    29.74F WCI  17
$$
  *****  WEATHER ELSEWHERE ACROSS MINNESOTA  *****

CITY           SKY/WX    TMP DP  RH WIND       PRES   REMARKS
DULUTH         PTCLDY    26  18  71 SW18G26   29.75F WCI  13
INTRNTL FALLS  PTCLDY    27  20  75 S9        29.60F WCI  18
ELY            MOCLDY    27  19  74 SW10G24   29.68S WCI  17
CLOQUET        PTCLDY    25  19  80 S13       29.78S WCI  13
WHEATON        PTCLDY    34  28  80 S6        29.77F
BRAINERD       MOCLDY    27  22  81 S14       29.78F WCI  16
HIBBING        MOCLDY    29  20  69 S9G21     29.70F WCI  20
ALEXANDRIA     MOCLDY    30  25  81 S17       29.77F WCI  18
SAINT CLOUD    MOCLDY    30  22  72 S17       29.84F WCI  18
MINNEAPOLIS    CLOUDY    30  22  72 S9        29.92F WCI  22
$$

  *****  WEATHER ACROSS SOUTH DAKOTA  *****

CITY           SKY/WX    TMP DP  RH WIND       PRES   REMARKS
SIOUX FALLS    CLOUDY    33  28  81 S9        29.88F
BROOKINGS      NOT AVBL
WATERTOWN      CLOUDY    33  29  85 S9        29.80F
HURON          MOCLDY    35  31  85 S5        29.82F
SISSETON         N/A     37  29  72 W23G31    29.71F
ABERDEEN       MOCLDY    31  26  82 S9        29.78S WCI  23
MITCHELL       CLOUDY    37  32  82 S8        29.85S
PIERRE         CLEAR     33  28  81 SW7       29.81S
MOBRIDGE       CLEAR     32  27  81 SE7       29.75S
RAPID CITY     CLEAR     34  24  67 SW8       29.82F
$$

  *****  SOME WEATHER IN NEARBY STATES *****

CITY           SKY/WX    TMP DP  RH WIND       PRES   REMARKS
GLASGOW MT     PTCLDY    37  29  72 SW5       29.64F
GREAT FALLS MT CLOUDY    43  26  51 SW9       29.60F
CHEYENNE WY    CLEAR     32  17  54 W7        29.95S
SCOTTSBLUFF NE CLEAR     31  20  63 N5        29.90R
OMAHA NE       CLOUDY    37  34  89 S15       30.03F
DES MOINES IA  CLOUDY    37  27  67 S10       30.07F
DAVENPORT IA   CLOUDY    35  13  40 S16       30.16F
CHICAGO IL     CLOUDY    30  10  43 S12       30.24F WCI  20
EAU CLAIRE WI  MOCLDY    28  18  66 S9        29.97F WCI  19
LA CROSSE WI   CLOUDY    32  16  51 S15       30.05F WCI  22
$$

  *****  SOME NATIONAL WEATHER *****

CITY           SKY/WX    TMP DP  RH WIND       PRES   REMARKS
LA GUARDIA NY  CLEAR     31  12  45 N6        30.50R
RALEIGH NC     CLEAR     31  13  47 CALM      30.53S
ATLANTA GA     CLEAR     52  32  46 CALM      30.40S
NEW ORLEANS LA PTCLDY    60  52  74 E7        30.26F
OKLAHOMA CITY  CLOUDY    60  57  89 S12       30.04S FOG
ALBUQUERQUE NM PTCLDY    43  17  35 CALM      30.05R
SALT LAKE CITY PTCLDY    37  29  72 SE3       29.99F
LOS ANGELES CA PTCLDY    64  57  78 CALM      29.99R
BOISE ID       LGT RAIN  35  29  78 SE12      29.88F
SEATTLE WA     LGT RAIN  50  48  93 S12       29.33R
$$

*** WEATHER ACROSS MANITOBA...SASKATCHEWAN AND ONTARIO ***
                ***ONTARIO***

CITY           SKY/WX    TMP DP  RH WIND       PRES   REMARKS
GERALDTON      LGT SNOW  30  25  80 SW21      29.55F DRFTSNOWWCI  17
THUNDER BAY    CLOUDY    32  23  69 SW14G28   29.67F WCI  22
SIOUX LOOKOUT  CLEAR     27  19  74 SW12G22   29.49F WCI  16
TORONTO        MOCLDY    18   9  68 SW6       30.37F WCI   9
BIG TROUT LK   LGT SNOW  18  16  93 W6        29.32F WCI   9
PICKLE LAKE    NOT AVBL
DRYDEN         CLEAR     27  21  80 SW16      29.50F WCI  14
KENORA         PTCLDY    27  23  86 SW18      29.49S WCI  13
$$
                *** MANITOBA***

CITY           SKY/WX    TMP DP  RH WIND       PRES   REMARKS
BRANDON        CLOUDY    39  34  81 NW13      29.54R
DAUPHIN        NOT AVBL
ISLAND LAKE    CLOUDY    21  19  93 NW10      29.37R WCI  10
PILOT MOUND      N/A     39  34  81 W10         N/A
THE PAS        CLOUDY    23  19  86 NW12      29.55R WCI  12
THOMPSON       FLURRIES   5   0  78 NW7       29.50R WCI  -7
WINNIPEG       MOCLDY    34  28  80 W13       29.51R WCI  25
LYNN LAKE      PTCLDY     0  -4  85 NW7       29.55R WCI -13
CHURCHILL      FLURRIES   3   0  85 N16       29.54F WCI -16
GILLAM         FLURRIES  -6  -9  84 N8        29.47R WCI -21
$$
                ***SASKATCHEWAN***

CITY           SKY/WX    TMP DP  RH WIND       PRES   REMARKS
ESTEVAN        CLEAR     30  27  86 SW8       29.58S WCI  23
KINDERSLEY     PTCLDY    28  27  93 S6        29.52F WCI  22
LLOYDMINSTER   CLOUDY    30  30 100 E7        29.51S FOG     WCI  23
PRINCE ALBERT  CLOUDY    25  21  86 N14       29.59S WCI  13
REGINA         LGT RAIN  36  34  93 W10       29.56S
YORKTON        CLOUDY    34  32  93 NW7       29.53R FOG
N. BATTLEFORD  CLOUDY    30  30 100 E8        29.56R FOG     WCI  23
LA RONGE       CLOUDY    19  12  73 NW15G21   29.61R WCI   5
SASKATOON      CLOUDY    32  30  93 E9        29.56F WCI  24
SWIFT CURRENT  CLEAR     30  27  86 SW13      29.53F WCI  20
$$
NOTE: THESE ARE AUTOMATED STATIONS WITH LIMITED QUALITY CONTROL
      "FAIR" INDICATES FEW OR NO CLOUDS BELOW 12,000 FEET WITH NO
      SIGNIFICANT WEATHER AND/OR OBSTRUCTIONS TO VISIBILITY.
      SKY/WX - SKY CONDITION AND SIGNIFICANT WEATHER.
      TMP - AIR TEMPERATURE.    DP   - DEWPOINT TEMPERATURE.
      RH  - RELATIVE HUMIDITY.  PRES - PRESSURE.
      HX  - HEAT INDEX.         WCI  - WIND CHILL INDEX.
$




U.S. Dept. of Commerce
NOAA National Weather Service
1325 East West Highway
Silver Spring, MD 20910
E-mail: w-nws.webmaster@noaa.gov
Page last modified: May 16, 2007
NATIONAL WEATHER SERVICE: for Safety, for Work, for Fun - FOR LIFE